Wind from 180 at 2 knots gusting 6

Air temperature 18.9° C
Dewpoint 12.2° C

Last reported at 2014-Apr-24 08:43 UTC.
Time now 2014-Apr-24 09:33 UTC

Location: N 39°27' E 016°16'.
View on Google Maps.

See reports from other nearby stations

Tides Stations Pressure Air Temp Water Temp Dewpoint Dewpoint depression Visibility Wind Speed Wind Dir Waves Ship positions

  
sailing weather and tide predictions

DW3733 Luzzi (cosenza) IT weather

date/time (UTC)wind fromknots sea level pressurealtimeterstation pressurevisibilityair tempwater tempwave heightnotes
2014-Apr-24 08:43 180 2 gusting 6 18.9
2014-Apr-24 08:33 180 1 gusting 5 18.9
2014-Apr-24 08:23 262 1 gusting 7 19.4
2014-Apr-24 08:13 214 2 gusting 7 18.9
2014-Apr-24 08:03 180 1 gusting 6 18.9
2014-Apr-24 07:53 237 2 gusting 8 18.9
2014-Apr-24 07:43 123 4 gusting 8 18.9
2014-Apr-24 07:33 153 5 gusting 8 18.9
2014-Apr-24 07:23 150 3 gusting 6 18.3
2014-Apr-24 07:13 272 3 gusting 8 18.3
2014-Apr-24 07:03 161 2 gusting 8 18.3
2014-Apr-24 06:53 259 2 gusting 8 18.3
2014-Apr-24 06:43 180 4 gusting 6 18.3
2014-Apr-24 06:33 139 4 gusting 8 17.8
2014-Apr-24 06:23 202 3 gusting 8 17.8
2014-Apr-24 06:13 225 2 gusting 6 17.2
2014-Apr-24 06:03 180 4 gusting 5 16.1
2014-Apr-23 21:03 188 0 gusting 2 14.4
2014-Apr-23 20:53 212 0 gusting 1 14.4
2014-Apr-23 20:43 180 14.4
2014-Apr-23 20:33 225 14.4
2014-Apr-23 20:23 096 0 gusting 4 14.4
2014-Apr-23 20:13 207 0 gusting 4 14.4
2014-Apr-23 20:03 090 2 gusting 5 13.9
2014-Apr-23 19:53 061 2 gusting 2 14.4
2014-Apr-23 19:43 090 0 gusting 1 14.4
2014-Apr-23 19:33 090 14.4
2014-Apr-23 19:23 090 14.4
2014-Apr-23 19:13 126 0 gusting 1 14.4
2014-Apr-23 19:03 135 0 gusting 1 15.0
2014-Apr-23 18:53 180 0 gusting 1 15.0
2014-Apr-23 18:43 199 15.0
2014-Apr-23 18:33 193 15.0
2014-Apr-23 18:23 090 0 gusting 1 15.0
2014-Apr-23 18:13 090 0 gusting 0 15.0
2014-Apr-23 18:03 090 0 gusting 0 15.6
2014-Apr-23 17:53 15.6
2014-Apr-23 17:43 113 15.6
2014-Apr-23 17:33 180 15.6
2014-Apr-23 17:23 135 16.1
2014-Apr-23 17:13 090 16.1
2014-Apr-23 17:03 090 16.1
2014-Apr-23 16:53 225 0 gusting 0 16.1
2014-Apr-23 16:43 135 16.1
2014-Apr-23 16:33 180 0 gusting 0 16.7
2014-Apr-23 16:23 198 16.7
2014-Apr-23 16:13 135 16.7
2014-Apr-23 16:03 090 0 gusting 2 16.7
2014-Apr-23 15:53 090 0 gusting 2 16.7
2014-Apr-23 15:43 070 0 gusting 2 16.7
2014-Apr-23 15:33 066 0 gusting 2 17.2
2014-Apr-23 15:23 055 0 gusting 2 17.2
2014-Apr-23 15:13 090 1 gusting 2 17.2
2014-Apr-23 15:03 017 0 gusting 2 17.2
2014-Apr-23 14:53 096 0 gusting 2 17.2
2014-Apr-23 14:43 062 17.2
2014-Apr-23 14:33 17.2
2014-Apr-23 14:23 045 0 gusting 1 17.2
2014-Apr-23 14:13 045 17.2
2014-Apr-23 14:03 090 0 gusting 0 17.2
2014-Apr-23 13:53 090 0 gusting 2 17.2
2014-Apr-23 13:43 090 0 gusting 1 17.2
2014-Apr-23 13:33 112 17.2
2014-Apr-23 13:23 241 0 gusting 4 17.8
2014-Apr-23 13:13 334 1 gusting 4 17.8
2014-Apr-23 13:03 214 0 gusting 4 17.8
2014-Apr-23 12:53 17.8
2014-Apr-23 12:43 274 18.3
2014-Apr-23 12:33 169 0 gusting 2 18.3
2014-Apr-23 12:23 207 2 gusting 2 18.3
2014-Apr-23 12:13 180 0 gusting 2 18.3
2014-Apr-23 12:03 090 1 gusting 2 17.8
2014-Apr-23 11:53 088 1 gusting 6 17.8
2014-Apr-23 11:43 045 1 gusting 5 17.8
2014-Apr-23 11:33 216 0 gusting 4 18.3
2014-Apr-23 11:23 092 2 gusting 6 17.8
2014-Apr-23 11:13 010 4 gusting 6 17.8
2014-Apr-23 11:03 028 2 gusting 8 17.8
2014-Apr-23 10:53 021 2 gusting 7 18.3
2014-Apr-23 10:43 090 1 gusting 5 18.3
2014-Apr-23 10:33 010 2 gusting 10 17.8
2014-Apr-23 10:23 045 3 gusting 8 17.8
2014-Apr-23 10:13 347 3 gusting 6 17.8
2014-Apr-23 10:03 315 2 gusting 5 17.8
2014-Apr-23 09:53 082 4 gusting 13 17.8
2014-Apr-23 09:43 355 6 gusting 13 17.8
2014-Apr-23 09:33 086 4 gusting 11 17.8
2014-Apr-23 09:23 064 5 gusting 14 17.8
2014-Apr-23 09:13 065 5 gusting 13 18.3
2014-Apr-23 09:03 018 6 gusting 14 18.3
2014-Apr-23 08:53 184 4 gusting 11 18.3
2014-Apr-23 08:43 045 4 gusting 11 17.8
2014-Apr-23 08:33 044 4 gusting 11 17.8
2014-Apr-23 08:23 315 5 gusting 11 17.8
2014-Apr-23 08:13 022 5 gusting 10 17.8
2014-Apr-23 08:03 17.2
2014-Apr-23 07:53 16.7
2014-Apr-23 07:43 16.7
2014-Apr-23 07:33 16.7
2014-Apr-23 07:23 078 2 gusting 8 16.7
2014-Apr-23 07:13 022 6 gusting 12 16.1
2014-Apr-23 07:03 027 5 gusting 11 16.1
2014-Apr-23 06:53 359 4 gusting 8 16.1
2014-Apr-23 06:43 321 6 gusting 10 16.1
2014-Apr-23 06:33 322 4 gusting 11 16.1
2014-Apr-23 06:23 357 5 gusting 11 16.1
2014-Apr-23 06:13 006 5 gusting 11 16.1
2014-Apr-23 06:03 16.1
2014-Apr-23 05:53 288 5 gusting 10 16.1
2014-Apr-23 05:43 16.1
2014-Apr-23 05:33 090 3 gusting 8 16.1
2014-Apr-23 05:23 324 5 gusting 11 16.7
2014-Apr-23 05:13 015 3 gusting 7 16.1
2014-Apr-23 05:03 315 2 gusting 6 15.0
2014-Apr-22 14:53 100 0 gusting 6 19.4
2014-Apr-22 14:43 086 2 gusting 6 20.0
2014-Apr-22 14:33 013 1 gusting 6 20.6
2014-Apr-22 14:23 21.1
2014-Apr-22 14:13 328 2 gusting 8 21.1
2014-Apr-22 14:03 21.7
2014-Apr-22 13:53 015 4 gusting 6 21.7
2014-Apr-22 13:43 270 2 gusting 7 21.7
2014-Apr-22 13:33 060 2 gusting 6 21.7
2014-Apr-22 13:23 21.7
2014-Apr-22 13:13 117 2 gusting 6 21.7
2014-Apr-22 13:03 035 2 gusting 5 21.7
2014-Apr-22 12:53 180 3 gusting 6 21.7
2014-Apr-22 12:43 015 2 gusting 5 21.7
2014-Apr-22 12:33 22.2
2014-Apr-22 12:23 037 1 gusting 6 22.2
2014-Apr-22 12:13 045 0 gusting 5 22.8
2014-Apr-22 12:03 022 0 gusting 5 22.8
2014-Apr-22 11:53 036 2 gusting 6 22.8
2014-Apr-22 11:43 045 1 gusting 5 22.2
2014-Apr-22 11:33 032 1 gusting 5 21.7
2014-Apr-22 11:23 292 1 gusting 5 21.7
2014-Apr-22 11:13 21.7
2014-Apr-22 11:03 21.1
2014-Apr-22 10:53 354 0 gusting 5 20.6
2014-Apr-22 10:43 20.6
2014-Apr-22 10:33 20.0
2014-Apr-22 10:23 096 0 gusting 1 19.4
2014-Apr-22 10:13 135 18.9
2014-Apr-22 10:03 158 0 gusting 0 18.9
2014-Apr-22 09:53 193 0 gusting 4 18.9
2014-Apr-22 09:43 156 0 gusting 4 18.9
2014-Apr-22 09:33 260 1 gusting 5 18.3
2014-Apr-22 09:23 135 1 gusting 4 18.3
2014-Apr-22 09:13 149 0 gusting 4 18.3
2014-Apr-22 09:03 202 1 gusting 2 17.8